User: anonymous   Login
Location: Albany
(35.0000°S, 118.0000°E)
Time: 21:46:49
(UTC-04:00)
Language:

CZ-4B R/B - Orbit

View from above orbital plane
View from above orbital plane
View from above satellite
View from above satellite

Ground track
Ground track

The orbit data is extracted from the following two-line orbital elements,

1 33410U 08053C   16208.48058841  .00000272  00000-0  25093-4 0  9996
2 33410  97.6847 177.0622 0120392 203.2633 156.3114 14.97795599422021
Epoch (UTC): 26 July 2016 11:32:02
Eccentricity: 0.0120392
inclination: 97.6847°
perigee height: 490 km
apogee height: 657 km
right ascension of ascending node: 177.0622°
argument of perigee: 203.2633°
revolutions per day: 14.97795599
mean anomaly at epoch: 156.3114°
orbit number at epoch: 42202

The dashed part of the orbit path shows where the satellite is in the earth's shadow,  

DLR